Location: Banff
(51.1667°N, 115.5667°W)
Time: 22:05:49
(UTC+00:00)

BlueWalker 3 - Visible Passes

Search period start: 04 December 2022 00:00
Search period end: 14 December 2022 00:00
Orbit: 501 x 519 km, 53.2° (Epoch: 04 December)

Date Brightness Start Highest point End Pass type
(mag) Time Alt. Az. Time Alt. Az. Time Alt. Az.
04 Dec 2.1 01:12:44 10° W 01:16:39 63° N 01:18:28 29° ENE visible
04 Dec 4.1 02:51:32 10° WNW 02:53:17 25° WNW 02:53:17 25° WNW visible
05 Dec 2.1 00:54:21 10° W 00:58:15 63° N 01:00:52 20° E visible
05 Dec 3.3 02:33:08 10° WNW 02:35:42 38° W 02:35:42 38° W visible
06 Dec 2.1 00:35:58 10° W 00:39:53 63° N 00:43:20 13° E visible
06 Dec 2.4 02:14:45 10° WNW 02:18:10 62° WSW 02:18:10 62° WSW visible
07 Dec 2.1 00:17:34 10° WNW 00:21:29 64° N 00:25:22 10° E visible
07 Dec 2.0 01:56:21 10° WNW 02:00:15 69° SSW 02:00:42 62° SSE visible
08 Dec 2.2 01:37:57 10° WNW 01:41:51 67° SSW 01:43:20 35° SE visible
08 Dec 5.0 03:17:19 10° W 03:18:12 14° WSW 03:18:12 14° WSW visible
09 Dec 2.3 01:19:33 10° WNW 01:23:26 64° SSW 01:26:08 19° SE visible
09 Dec 4.6 02:58:59 10° W 03:01:00 16° SW 03:01:00 16° SW visible
10 Dec 2.4 01:01:09 10° WNW 01:05:01 62° SSW 01:08:52 10° SE visible
10 Dec 4.5 02:40:39 10° W 02:43:05 16° SW 02:43:59 15° SSW visible
11 Dec 2.5 00:42:43 10° WNW 00:46:36 59° SSW 00:50:26 10° SE visible
11 Dec 4.8 02:22:20 10° W 02:24:39 15° SW 02:26:57 10° S visible
12 Dec 2.7 00:24:19 10° WNW 00:28:10 57° SSW 00:31:59 10° SE visible
12 Dec 4.9 02:04:02 10° W 02:06:11 14° SW 02:08:21 10° SSW visible
13 Dec 2.8 00:05:53 10° WNW 00:09:44 54° SSW 00:13:33 10° SE visible
13 Dec 5.0 01:45:43 10° WSW 01:47:44 14° SW 01:49:43 10° SSW visible
